Weather History for Carmacks, YT

Change the Weather History Date:

Thursday, December 19, 2013

  Actual Average Record
Temperature  
Mean Temperature -32 °F -  
Max Temperature -16 °F - - ()
Min Temperature -47 °F - - ()
Degree Days  
Heating Degree Days 96    
Moisture  
Dew Point -31 °F    
Average Humidity 70    
Maximum Humidity 81    
Minimum Humidity 46    
Precipitation  
Precipitation 0.00 in - - ()
Sea Level Pressure  
Sea Level Pressure 30.17 in    
Wind  
Wind Speed 1 mph ()    
Max Wind Speed 4 mph    
Max Gust Speed -    
T = Trace of Precipitation, MM = Missing Value Source: Averaged Metar Reports

Daily Weather History Graph

Daily Weather History Graph

Search for Another Location

Airport:

Trip Planner

Search our weather history database for the weather conditions in past years. The results will help you decide how hot, cold, wet, or windy it might be!

Date:

Astronomy

Dec. 19, 2013 Rise Set
Actual Time 10:28 AM PST 3:35 PM PST
Civil Twilight 9:22 AM PST 4:41 PM PST
Nautical Twilight 8:20 AM PST 5:44 PM PST
Astronomical Twilight 7:24 AM PST 6:39 PM PST
Moon 6:59 PM PST (12/19) 11:05 AM PST (12/19)
Length of Visible Light 7h 19m
Length of Day
5h 06m
Waning Gibbous, 95% of the Moon is Illuminated
Dec 19
Waning Gibbous
Dec 25
Last Quarter
Jan 1
New
Jan 7
First Quarter
Jan 15
Full

Hourly Weather History & Observations

Time (PST) Temp. Windchill Dew Point Humidity Pressure Visibility Wind Dir Wind Speed Gust Speed Precip Events Conditions
12:00 AM -36.6 °F - -44.0 °F 67% 30.38 in - Calm Calm - N/A   Unknown
1:00 AM -31.9 °F - -41.1 °F 61% 30.35 in - East 1.2 mph - N/A   Unknown
2:00 AM -29.9 °F - -36.8 °F 70% 30.30 in - South 1.2 mph - N/A   Unknown
3:00 AM -29.2 °F - -36.0 °F 70% 30.27 in - West 1.2 mph - N/A   Unknown
4:00 AM -27 °F - -36 °F 46% 30.26 in - Calm Calm - -  
4:00 AM -27.4 °F - -35.5 °F 65% 30.26 in - Calm Calm - N/A   Unknown
5:00 AM -25.2 °F - -31.5 °F 72% 30.23 in - West 1.2 mph - N/A   Unknown
6:00 AM -24.2 °F - -28.3 °F 81% 30.22 in - WNW 2.3 mph - N/A   Unknown
7:00 AM -23.4 °F - -29.6 °F 73% 30.20 in - West 2.3 mph - N/A   Unknown
8:00 AM -22.7 °F - -28.5 °F 74% 30.17 in - West 2.3 mph - N/A   Unknown
9:00 AM -22.2 °F - -27.9 °F 75% 30.15 in - NW 1.2 mph - N/A   Unknown
10:00 AM -21 °F - -27 °F 58% 30.14 in - WNW 2.3 mph - -  
10:00 AM -21.5 °F - -27.2 °F 75% 30.14 in - WNW 2.3 mph - N/A   Unknown
11:00 AM -20.6 °F - -26.1 °F 75% 30.13 in - WNW 2.3 mph - N/A   Unknown
12:00 PM -19.7 °F - -25.2 °F 75% 30.13 in - West 2.3 mph - N/A   Unknown
1:00 PM -18.4 °F - -23.8 °F 76% 30.12 in - NW 1.2 mph - N/A   Unknown
2:00 PM -17.1 °F - -22.5 °F 76% 30.10 in - NNE 1.2 mph - N/A   Unknown
3:00 PM -16.8 °F - -22.2 °F 76% 30.10 in - Calm Calm - N/A   Unknown
4:00 PM -16 °F - -22 °F 61% 30.10 in - NW 3.5 mph - -  
4:00 PM -16.4 °F -26.6 °F -22.0 °F 76% 30.10 in - NW 3.5 mph - N/A   Unknown
5:00 PM -19.1 °F - -24.9 °F 75% 30.10 in - North 1.2 mph - N/A   Unknown
6:00 PM -23.1 °F - -29.2 °F 73% 30.11 in - NNE 1.2 mph - N/A   Unknown
7:00 PM -25.6 °F - -31.9 °F 72% 30.11 in - Calm Calm - N/A   Unknown
8:00 PM -27.0 °F - -33.3 °F 72% 30.10 in - Calm Calm - N/A   Unknown
9:00 PM -28.5 °F - -35.0 °F 71% 30.11 in - Calm Calm - N/A   Unknown
10:00 PM -30 °F - -36 °F 56% 30.11 in - Calm Calm - -  
10:00 PM -29.6 °F - -36.2 °F 70% 30.11 in - Calm Calm - N/A   Unknown
11:00 PM -29.6 °F - -36.2 °F 70% 30.09 in - Calm Calm - N/A   Unknown